EXACTVIEW-1 (ADS-1B)

Last updated on Sun Nov 16 2025 00:03:20 GMT+0000 (Coordinated Universal Time)

1 38709U 12039C 25319.28769579 .00000366 00000+0 17646-3 0 9996 2 38709 98.9631 67.1041 0011825 70.4454 289.8000 14.24891847692243
UTC large
Height (km)
Speed (km/s)
/
Latitude / Longitude
Inclination (degrees)
Orbital Period (minutes)
Azimuth
Elevation
Range (km)
Doppler Factor

Next 0 passes for location: London (51.5072 / 0.1276)

Sorry there are no passes over London.